Location: Recife
(8.0585°S, 34.8848°W)
Time: 06:53:19
(UTC-03:00)

Vanguard 3 - Pass Details

Date: 22 April 2026
Orbit: 507 x 3205 km, 33.4° (Epoch: 13 May)

Event Time Altitude Azimuth Distance (km) Brightness Sun altitude
Rises 07:27:05 0° 270° (W) 4,371 10.4 29.1°
Reaches altitude 10° 07:29:54 10° 261° (W) 3,722 10.1 29.8°
Maximum altitude 07:39:14 36° 197° (SSW) 3,065 10.1 31.9°
Drops below altitude 10° 07:53:54 10° 136° (SE) 5,769 11.8 35.3°
Sets 07:59:42 0° 128° (SE) 7,024 12.3 36.7°
